owner,sensor,date,latitude,longitude,relative_humidity,qcFlag 
COMPS,ioos:station:USF.COMPS:C13:1,2016-06-01T00:05:00Z,26.0630,-83.0730,65.63,1111122 
COMPS,ioos:station:USF.COMPS:C13:1,2016-06-01T00:35:00Z,26.0630,-83.0730,68.95,1111122 
COMPS,ioos:station:USF.COMPS:C13:1,2016-06-01T01:05:00Z,26.0630,-83.0730,69.45,1111122 
COMPS,ioos:station:USF.COMPS:C13:1,2016-06-01T01:35:00Z,26.0630,-83.0730,69.06,1111122 
COMPS,ioos:station:USF.COMPS:C13:1,2016-06-01T02:05:00Z,26.0630,-83.0730,69.63,1111122 
COMPS,ioos:station:USF.COMPS:C13:1,2016-06-01T02:35:00Z,26.0630,-83.0730,66.78,1111122 
COMPS,ioos:station:USF.COMPS:C13:1,2016-06-01T03:05:00Z,26.0630,-83.0730,69.0,1111122 
COMPS,ioos:station:USF.COMPS:C13:1,2016-06-01T03:35:00Z,26.0630,-83.0730,68.75,1111122 
COMPS,ioos:station:USF.COMPS:C13:1,2016-06-01T04:05:00Z,26.0630,-83.0730,68.07,1111122 
COMPS,ioos:station:USF.COMPS:C13:1,2016-06-01T04:35:00Z,26.0630,-83.0730,70.16,1111122 
COMPS,ioos:station:USF.COMPS:C13:1,2016-06-01T05:05:00Z,26.0630,-83.0730,69.49,1111122 
COMPS,ioos:station:USF.COMPS:C13:1,2016-06-01T05:35:00Z,26.0630,-83.0730,69.41,1111122 
COMPS,ioos:station:USF.COMPS:C13:1,2016-06-01T06:05:00Z,26.0630,-83.0730,69.82,1111122 
COMPS,ioos:station:USF.COMPS:C13:1,2016-06-01T06:35:00Z,26.0630,-83.0730,69.84,1111122 
COMPS,ioos:station:USF.COMPS:C13:1,2016-06-01T07:05:00Z,26.0630,-83.0730,69.99,1111122 
COMPS,ioos:station:USF.COMPS:C13:1,2016-06-01T07:35:00Z,26.0630,-83.0730,69.37,1111122 
COMPS,ioos:station:USF.COMPS:C13:1,2016-06-01T08:05:00Z,26.0630,-83.0730,69.31,1111122 
COMPS,ioos:station:USF.COMPS:C13:1,2016-06-01T08:35:00Z,26.0630,-83.0730,70.09,1111122 
COMPS,ioos:station:USF.COMPS:C13:1,2016-06-01T09:05:00Z,26.0630,-83.0730,70.76,1111122 
COMPS,ioos:station:USF.COMPS:C13:1,2016-06-01T09:35:00Z,26.0630,-83.0730,72.24,1111122 
COMPS,ioos:station:USF.COMPS:C13:1,2016-06-01T10:05:00Z,26.0630,-83.0730,71.15,1111122 
COMPS,ioos:station:USF.COMPS:C13:1,2016-06-01T10:35:00Z,26.0630,-83.0730,70.8,1111122 
COMPS,ioos:station:USF.COMPS:C13:1,2016-06-01T11:05:00Z,26.0630,-83.0730,71.12,1111122 
COMPS,ioos:station:USF.COMPS:C13:1,2016-06-01T11:35:00Z,26.0630,-83.0730,71.66,1111122 
COMPS,ioos:station:USF.COMPS:C13:1,2016-06-01T12:05:00Z,26.0630,-83.0730,70.66,1111122 
COMPS,ioos:station:USF.COMPS:C13:1,2016-06-01T12:35:00Z,26.0630,-83.0730,69.46,1111122 
COMPS,ioos:station:USF.COMPS:C13:1,2016-06-01T13:05:00Z,26.0630,-83.0730,68.59,1111122 
COMPS,ioos:station:USF.COMPS:C13:1,2016-06-01T13:35:00Z,26.0630,-83.0730,70.02,1111122 
COMPS,ioos:station:USF.COMPS:C13:1,2016-06-01T14:05:00Z,26.0630,-83.0730,72.0,1111122 
COMPS,ioos:station:USF.COMPS:C13:1,2016-06-01T14:35:00Z,26.0630,-83.0730,70.99,1111122 
COMPS,ioos:station:USF.COMPS:C13:1,2016-06-01T16:05:00Z,26.0630,-83.0730,73.15,1111122 
COMPS,ioos:station:USF.COMPS:C13:1,2016-06-01T16:35:00Z,26.0630,-83.0730,74.18,1111122 
COMPS,ioos:station:USF.COMPS:C13:1,2016-06-01T19:05:00Z,26.0630,-83.0730,73.55,1111122 
COMPS,ioos:station:USF.COMPS:C13:1,2016-06-01T19:35:00Z,26.0630,-83.0730,72.62,1111122 
COMPS,ioos:station:USF.COMPS:C13:1,2016-06-01T20:05:00Z,26.0630,-83.0730,71.34,1111122 
COMPS,ioos:station:USF.COMPS:C13:1,2016-06-01T20:35:00Z,26.0630,-83.0730,71.17,1111122 
COMPS,ioos:station:USF.COMPS:C13:1,2016-06-01T21:05:00Z,26.0630,-83.0730,71.21,1111122 
COMPS,ioos:station:USF.COMPS:C13:1,2016-06-01T21:35:00Z,26.0630,-83.0730,72.36,1111122 
COMPS,ioos:station:USF.COMPS:C13:1,2016-06-01T22:05:00Z,26.0630,-83.0730,71.4,1111122 
COMPS,ioos:station:USF.COMPS:C13:1,2016-06-01T22:35:00Z,26.0630,-83.0730,68.3,1111122 
COMPS,ioos:station:USF.COMPS:C13:1,2016-06-01T23:05:00Z,26.0630,-83.0730,65.79,1111122 
COMPS,ioos:station:USF.COMPS:C13:1,2016-06-01T23:35:00Z,26.0630,-83.0730,66.64,1111122 
COMPS,ioos:station:USF.COMPS:C13:1,2016-06-02T00:05:00Z,26.0630,-83.0730,67.83,1111122 
COMPS,ioos:station:USF.COMPS:C13:1,2016-06-02T00:35:00Z,26.0630,-83.0730,70.41,1111122 
COMPS,ioos:station:USF.COMPS:C13:1,2016-06-02T01:05:00Z,26.0630,-83.0730,72.26,1111122 
COMPS,ioos:station:USF.COMPS:C13:1,2016-06-02T01:35:00Z,26.0630,-83.0730,72.31,1111122 
COMPS,ioos:station:USF.COMPS:C13:1,2016-06-02T02:05:00Z,26.0630,-83.0730,71.81,1111122 
COMPS,ioos:station:USF.COMPS:C13:1,2016-06-02T02:35:00Z,26.0630,-83.0730,79.0,1111122 
COMPS,ioos:station:USF.COMPS:C13:1,2016-06-02T03:05:00Z,26.0630,-83.0730,75.56,1111122 
COMPS,ioos:station:USF.COMPS:C13:1,2016-06-02T03:35:00Z,26.0630,-83.0730,71.47,1111122 
COMPS,ioos:station:USF.COMPS:C13:1,2016-06-02T04:05:00Z,26.0630,-83.0730,73.93,1111122 
COMPS,ioos:station:USF.COMPS:C13:1,2016-06-02T04:35:00Z,26.0630,-83.0730,76.51,1111122 
COMPS,ioos:station:USF.COMPS:C13:1,2016-06-02T05:05:00Z,26.0630,-83.0730,80.57,1111122 
COMPS,ioos:station:USF.COMPS:C13:1,2016-06-02T05:35:00Z,26.0630,-83.0730,81.63,1111122 
COMPS,ioos:station:USF.COMPS:C13:1,2016-06-02T06:05:00Z,26.0630,-83.0730,80.16,1111122 
COMPS,ioos:station:USF.COMPS:C13:1,2016-06-02T06:35:00Z,26.0630,-83.0730,81.04,1111122 
COMPS,ioos:station:USF.COMPS:C13:1,2016-06-02T07:05:00Z,26.0630,-83.0730,79.76,1111122 
COMPS,ioos:station:USF.COMPS:C13:1,2016-06-02T07:35:00Z,26.0630,-83.0730,78.24,1111122 
COMPS,ioos:station:USF.COMPS:C13:1,2016-06-02T08:05:00Z,26.0630,-83.0730,76.56,1111122 
COMPS,ioos:station:USF.COMPS:C13:1,2016-06-02T08:35:00Z,26.0630,-83.0730,76.68,1111122 
COMPS,ioos:station:USF.COMPS:C13:1,2016-06-02T09:05:00Z,26.0630,-83.0730,75.23,1111122 
COMPS,ioos:station:USF.COMPS:C13:1,2016-06-02T09:35:00Z,26.0630,-83.0730,78.86,1111122 
COMPS,ioos:station:USF.COMPS:C13:1,2016-06-02T10:05:00Z,26.0630,-83.0730,69.59,1111122 
COMPS,ioos:station:USF.COMPS:C13:1,2016-06-02T10:35:00Z,26.0630,-83.0730,71.03,1111122 
COMPS,ioos:station:USF.COMPS:C13:1,2016-06-02T11:05:00Z,26.0630,-83.0730,76.46,1111122 
COMPS,ioos:station:USF.COMPS:C13:1,2016-06-02T11:35:00Z,26.0630,-83.0730,76.65,1111122 
COMPS,ioos:station:USF.COMPS:C13:1,2016-06-02T12:05:00Z,26.0630,-83.0730,75.63,1111122 
COMPS,ioos:station:USF.COMPS:C13:1,2016-06-02T12:35:00Z,26.0630,-83.0730,68.38,1111122 
COMPS,ioos:station:USF.COMPS:C13:1,2016-06-02T13:05:00Z,26.0630,-83.0730,74.09,1111122 
COMPS,ioos:station:USF.COMPS:C13:1,2016-06-02T13:35:00Z,26.0630,-83.0730,77.95,1111122 
COMPS,ioos:station:USF.COMPS:C13:1,2016-06-02T14:05:00Z,26.0630,-83.0730,80.03,1111122 
COMPS,ioos:station:USF.COMPS:C13:1,2016-06-02T14:35:00Z,26.0630,-83.0730,79.58,1111122 
COMPS,ioos:station:USF.COMPS:C13:1,2016-06-02T15:05:00Z,26.0630,-83.0730,80.45,1111122 
COMPS,ioos:station:USF.COMPS:C13:1,2016-06-02T15:35:00Z,26.0630,-83.0730,80.52,1111122 
COMPS,ioos:station:USF.COMPS:C13:1,2016-06-02T16:05:00Z,26.0630,-83.0730,79.22,1111122 
COMPS,ioos:station:USF.COMPS:C13:1,2016-06-02T16:35:00Z,26.0630,-83.0730,79.92,1111122 
COMPS,ioos:station:USF.COMPS:C13:1,2016-06-02T17:05:00Z,26.0630,-83.0730,82.23,1111122 
COMPS,ioos:station:USF.COMPS:C13:1,2016-06-02T17:35:00Z,26.0630,-83.0730,82.27,1111122 
COMPS,ioos:station:USF.COMPS:C13:1,2016-06-02T18:05:00Z,26.0630,-83.0730,82.06,1111122 
COMPS,ioos:station:USF.COMPS:C13:1,2016-06-02T18:35:00Z,26.0630,-83.0730,82.0,1111122 
COMPS,ioos:station:USF.COMPS:C13:1,2016-06-02T19:05:00Z,26.0630,-83.0730,80.8,1111122 
COMPS,ioos:station:USF.COMPS:C13:1,2016-06-02T19:35:00Z,26.0630,-83.0730,80.29,1111122 
COMPS,ioos:station:USF.COMPS:C13:1,2016-06-02T20:05:00Z,26.0630,-83.0730,78.73,1111122 
COMPS,ioos:station:USF.COMPS:C13:1,2016-06-02T20:35:00Z,26.0630,-83.0730,79.08,1111122 
COMPS,ioos:station:USF.COMPS:C13:1,2016-06-02T21:05:00Z,26.0630,-83.0730,78.03,1111122 
COMPS,ioos:station:USF.COMPS:C13:1,2016-06-02T21:35:00Z,26.0630,-83.0730,74.96,1111122 
COMPS,ioos:station:USF.COMPS:C13:1,2016-06-02T22:05:00Z,26.0630,-83.0730,75.73,1111122 
COMPS,ioos:station:USF.COMPS:C13:1,2016-06-02T22:35:00Z,26.0630,-83.0730,78.33,1111122 
COMPS,ioos:station:USF.COMPS:C13:1,2016-06-02T23:05:00Z,26.0630,-83.0730,77.35,1111122 
COMPS,ioos:station:USF.COMPS:C13:1,2016-06-02T23:35:00Z,26.0630,-83.0730,78.4,1111122 
COMPS,ioos:station:USF.COMPS:C13:1,2016-06-03T00:05:00Z,26.0630,-83.0730,77.86,1111122 
COMPS,ioos:station:USF.COMPS:C13:1,2016-06-03T00:35:00Z,26.0630,-83.0730,77.85,1111122 
COMPS,ioos:station:USF.COMPS:C13:1,2016-06-03T01:05:00Z,26.0630,-83.0730,75.63,1111122 
COMPS,ioos:station:USF.COMPS:C13:1,2016-06-03T01:35:00Z,26.0630,-83.0730,76.56,1111122 
COMPS,ioos:station:USF.COMPS:C13:1,2016-06-03T02:05:00Z,26.0630,-83.0730,78.22,1111122 
COMPS,ioos:station:USF.COMPS:C13:1,2016-06-03T02:35:00Z,26.0630,-83.0730,80.04,1111122 
COMPS,ioos:station:USF.COMPS:C13:1,2016-06-03T03:05:00Z,26.0630,-83.0730,79.4,1111122 
COMPS,ioos:station:USF.COMPS:C13:1,2016-06-03T03:35:00Z,26.0630,-83.0730,78.31,1111122 
COMPS,ioos:station:USF.COMPS:C13:1,2016-06-03T04:05:00Z,26.0630,-83.0730,79.75,1111122 
COMPS,ioos:station:USF.COMPS:C13:1,2016-06-03T04:35:00Z,26.0630,-83.0730,79.68,1111122 
COMPS,ioos:station:USF.COMPS:C13:1,2016-06-03T05:05:00Z,26.0630,-83.0730,78.65,1111122 
COMPS,ioos:station:USF.COMPS:C13:1,2016-06-03T05:35:00Z,26.0630,-83.0730,80.42,1111122 
COMPS,ioos:station:USF.COMPS:C13:1,2016-06-03T06:05:00Z,26.0630,-83.0730,80.91,1111122 
COMPS,ioos:station:USF.COMPS:C13:1,2016-06-03T06:35:00Z,26.0630,-83.0730,81.12,1111122 
COMPS,ioos:station:USF.COMPS:C13:1,2016-06-03T07:05:00Z,26.0630,-83.0730,81.68,1111122 
COMPS,ioos:station:USF.COMPS:C13:1,2016-06-03T07:35:00Z,26.0630,-83.0730,80.65,1111122 
COMPS,ioos:station:USF.COMPS:C13:1,2016-06-03T08:05:00Z,26.0630,-83.0730,80.72,1111122 
COMPS,ioos:station:USF.COMPS:C13:1,2016-06-03T08:35:00Z,26.0630,-83.0730,80.34,1111122 
COMPS,ioos:station:USF.COMPS:C13:1,2016-06-03T09:05:00Z,26.0630,-83.0730,80.77,1111122 
COMPS,ioos:station:USF.COMPS:C13:1,2016-06-03T09:35:00Z,26.0630,-83.0730,80.92,1111122 
COMPS,ioos:station:USF.COMPS:C13:1,2016-06-03T10:05:00Z,26.0630,-83.0730,79.5,1111122 
COMPS,ioos:station:USF.COMPS:C13:1,2016-06-03T10:35:00Z,26.0630,-83.0730,81.67,1111122 
COMPS,ioos:station:USF.COMPS:C13:1,2016-06-03T11:05:00Z,26.0630,-83.0730,81.75,1111122 
COMPS,ioos:station:USF.COMPS:C13:1,2016-06-03T11:35:00Z,26.0630,-83.0730,77.87,1111122 
COMPS,ioos:station:USF.COMPS:C13:1,2016-06-03T12:05:00Z,26.0630,-83.0730,78.05,1111122 
COMPS,ioos:station:USF.COMPS:C13:1,2016-06-03T12:35:00Z,26.0630,-83.0730,78.29,1111122 
COMPS,ioos:station:USF.COMPS:C13:1,2016-06-03T13:05:00Z,26.0630,-83.0730,78.11,1111122 
COMPS,ioos:station:USF.COMPS:C13:1,2016-06-03T13:35:00Z,26.0630,-83.0730,80.18,1111122 
COMPS,ioos:station:USF.COMPS:C13:1,2016-06-03T14:05:00Z,26.0630,-83.0730,79.62,1111122 
COMPS,ioos:station:USF.COMPS:C13:1,2016-06-03T14:35:00Z,26.0630,-83.0730,78.56,1111122 
COMPS,ioos:station:USF.COMPS:C13:1,2016-06-03T15:05:00Z,26.0630,-83.0730,80.07,1111122 
COMPS,ioos:station:USF.COMPS:C13:1,2016-06-03T15:35:00Z,26.0630,-83.0730,78.08,1111122 
COMPS,ioos:station:USF.COMPS:C13:1,2016-06-03T16:05:00Z,26.0630,-83.0730,79.84,1111122 
COMPS,ioos:station:USF.COMPS:C13:1,2016-06-03T16:35:00Z,26.0630,-83.0730,76.76,1111122 
COMPS,ioos:station:USF.COMPS:C13:1,2016-06-03T17:05:00Z,26.0630,-83.0730,80.33,1111122 
COMPS,ioos:station:USF.COMPS:C13:1,2016-06-03T17:35:00Z,26.0630,-83.0730,76.46,1111122 
COMPS,ioos:station:USF.COMPS:C13:1,2016-06-03T18:05:00Z,26.0630,-83.0730,81.15,1111122 
COMPS,ioos:station:USF.COMPS:C13:1,2016-06-03T18:35:00Z,26.0630,-83.0730,82.56,1111122 
COMPS,ioos:station:USF.COMPS:C13:1,2016-06-03T19:05:00Z,26.0630,-83.0730,79.76,1111122 
COMPS,ioos:station:USF.COMPS:C13:1,2016-06-03T19:35:00Z,26.0630,-83.0730,78.96,1111122 
COMPS,ioos:station:USF.COMPS:C13:1,2016-06-03T20:05:00Z,26.0630,-83.0730,78.37,1111122 
COMPS,ioos:station:USF.COMPS:C13:1,2016-06-03T20:35:00Z,26.0630,-83.0730,79.0,1111122 
COMPS,ioos:station:USF.COMPS:C13:1,2016-06-03T21:05:00Z,26.0630,-83.0730,79.82,1111122 
COMPS,ioos:station:USF.COMPS:C13:1,2016-06-03T21:35:00Z,26.0630,-83.0730,79.17,1111122 
COMPS,ioos:station:USF.COMPS:C13:1,2016-06-03T22:05:00Z,26.0630,-83.0730,78.95,1111122 
COMPS,ioos:station:USF.COMPS:C13:1,2016-06-03T22:35:00Z,26.0630,-83.0730,78.86,1111122 
COMPS,ioos:station:USF.COMPS:C13:1,2016-06-03T23:05:00Z,26.0630,-83.0730,78.61,1111122 
COMPS,ioos:station:USF.COMPS:C13:1,2016-06-03T23:35:00Z,26.0630,-83.0730,78.75,1111122 
COMPS,ioos:station:USF.COMPS:C13:1,2016-06-04T00:05:00Z,26.0630,-83.0730,78.05,1111122 
COMPS,ioos:station:USF.COMPS:C13:1,2016-06-04T00:35:00Z,26.0630,-83.0730,78.7,1111122 
COMPS,ioos:station:USF.COMPS:C13:1,2016-06-04T01:05:00Z,26.0630,-83.0730,77.48,1111122 
COMPS,ioos:station:USF.COMPS:C13:1,2016-06-04T01:35:00Z,26.0630,-83.0730,77.9,1111122 
COMPS,ioos:station:USF.COMPS:C13:1,2016-06-04T02:05:00Z,26.0630,-83.0730,77.11,1111122 
COMPS,ioos:station:USF.COMPS:C13:1,2016-06-04T02:35:00Z,26.0630,-83.0730,78.02,1111122 
COMPS,ioos:station:USF.COMPS:C13:1,2016-06-04T03:05:00Z,26.0630,-83.0730,78.71,1111122 
COMPS,ioos:station:USF.COMPS:C13:1,2016-06-04T03:35:00Z,26.0630,-83.0730,78.61,1111122 
COMPS,ioos:station:USF.COMPS:C13:1,2016-06-04T04:05:00Z,26.0630,-83.0730,78.98,1111122 
COMPS,ioos:station:USF.COMPS:C13:1,2016-06-04T04:35:00Z,26.0630,-83.0730,79.4,1111122 
COMPS,ioos:station:USF.COMPS:C13:1,2016-06-04T05:05:00Z,26.0630,-83.0730,79.57,1111122 
COMPS,ioos:station:USF.COMPS:C13:1,2016-06-04T05:35:00Z,26.0630,-83.0730,80.81,1111122 
COMPS,ioos:station:USF.COMPS:C13:1,2016-06-04T06:05:00Z,26.0630,-83.0730,82.08,1111122 
COMPS,ioos:station:USF.COMPS:C13:1,2016-06-04T06:35:00Z,26.0630,-83.0730,84.4,1111122 
COMPS,ioos:station:USF.COMPS:C13:1,2016-06-04T07:05:00Z,26.0630,-83.0730,80.63,1111122 
COMPS,ioos:station:USF.COMPS:C13:1,2016-06-04T07:35:00Z,26.0630,-83.0730,82.23,1111122 
COMPS,ioos:station:USF.COMPS:C13:1,2016-06-04T08:05:00Z,26.0630,-83.0730,83.52,1111122 
COMPS,ioos:station:USF.COMPS:C13:1,2016-06-04T08:35:00Z,26.0630,-83.0730,82.45,1111122 
COMPS,ioos:station:USF.COMPS:C13:1,2016-06-04T09:05:00Z,26.0630,-83.0730,82.28,1111122 
COMPS,ioos:station:USF.COMPS:C13:1,2016-06-04T09:35:00Z,26.0630,-83.0730,81.79,1111122 
COMPS,ioos:station:USF.COMPS:C13:1,2016-06-04T10:05:00Z,26.0630,-83.0730,83.04,1111122 
COMPS,ioos:station:USF.COMPS:C13:1,2016-06-04T10:35:00Z,26.0630,-83.0730,84.14,1111122 
COMPS,ioos:station:USF.COMPS:C13:1,2016-06-04T11:05:00Z,26.0630,-83.0730,83.2,1111122 
COMPS,ioos:station:USF.COMPS:C13:1,2016-06-04T11:35:00Z,26.0630,-83.0730,83.05,1111122 
COMPS,ioos:station:USF.COMPS:C13:1,2016-06-04T12:05:00Z,26.0630,-83.0730,78.35,1111122 
COMPS,ioos:station:USF.COMPS:C13:1,2016-06-04T12:35:00Z,26.0630,-83.0730,80.16,1111122 
COMPS,ioos:station:USF.COMPS:C13:1,2016-06-04T13:05:00Z,26.0630,-83.0730,82.9,1111122 
COMPS,ioos:station:USF.COMPS:C13:1,2016-06-04T13:35:00Z,26.0630,-83.0730,82.5,1111122 
COMPS,ioos:station:USF.COMPS:C13:1,2016-06-04T14:05:00Z,26.0630,-83.0730,83.98,1111122 
COMPS,ioos:station:USF.COMPS:C13:1,2016-06-04T14:35:00Z,26.0630,-83.0730,82.26,1111122 
COMPS,ioos:station:USF.COMPS:C13:1,2016-06-04T15:05:00Z,26.0630,-83.0730,82.59,1111122 
COMPS,ioos:station:USF.COMPS:C13:1,2016-06-04T15:35:00Z,26.0630,-83.0730,82.49,1111122 
COMPS,ioos:station:USF.COMPS:C13:1,2016-06-04T16:05:00Z,26.0630,-83.0730,82.71,1111122 
COMPS,ioos:station:USF.COMPS:C13:1,2016-06-04T16:35:00Z,26.0630,-83.0730,84.29,1111122 
COMPS,ioos:station:USF.COMPS:C13:1,2016-06-04T17:05:00Z,26.0630,-83.0730,82.1,1111122 
COMPS,ioos:station:USF.COMPS:C13:1,2016-06-04T17:35:00Z,26.0630,-83.0730,82.62,1111122 
COMPS,ioos:station:USF.COMPS:C13:1,2016-06-04T18:05:00Z,26.0630,-83.0730,82.66,1111122 
COMPS,ioos:station:USF.COMPS:C13:1,2016-06-04T18:35:00Z,26.0630,-83.0730,82.13,1111122 
COMPS,ioos:station:USF.COMPS:C13:1,2016-06-04T19:05:00Z,26.0630,-83.0730,81.47,1111122 
COMPS,ioos:station:USF.COMPS:C13:1,2016-06-04T19:35:00Z,26.0630,-83.0730,82.11,1111122 
COMPS,ioos:station:USF.COMPS:C13:1,2016-06-04T21:05:00Z,26.0630,-83.0730,79.19,1111122 
COMPS,ioos:station:USF.COMPS:C13:1,2016-06-04T21:35:00Z,26.0630,-83.0730,78.41,1111122 
COMPS,ioos:station:USF.COMPS:C13:1,2016-06-04T22:05:00Z,26.0630,-83.0730,77.76,1111122 
COMPS,ioos:station:USF.COMPS:C13:1,2016-06-04T22:35:00Z,26.0630,-83.0730,77.53,1111122 
COMPS,ioos:station:USF.COMPS:C13:1,2016-06-04T23:05:00Z,26.0630,-83.0730,77.31,1111122 
COMPS,ioos:station:USF.COMPS:C13:1,2016-06-04T23:35:00Z,26.0630,-83.0730,76.59,1111122 
COMPS,ioos:station:USF.COMPS:C13:1,2016-06-05T00:05:00Z,26.0630,-83.0730,77.66,1111122 
COMPS,ioos:station:USF.COMPS:C13:1,2016-06-05T00:35:00Z,26.0630,-83.0730,76.38,1111122 
COMPS,ioos:station:USF.COMPS:C13:1,2016-06-05T01:05:00Z,26.0630,-83.0730,80.31,1111122 
COMPS,ioos:station:USF.COMPS:C13:1,2016-06-05T01:35:00Z,26.0630,-83.0730,80.23,1111122 
COMPS,ioos:station:USF.COMPS:C13:1,2016-06-05T02:05:00Z,26.0630,-83.0730,78.19,1111122 
COMPS,ioos:station:USF.COMPS:C13:1,2016-06-05T02:35:00Z,26.0630,-83.0730,76.53,1111122 
COMPS,ioos:station:USF.COMPS:C13:1,2016-06-05T03:05:00Z,26.0630,-83.0730,76.88,1111122 
COMPS,ioos:station:USF.COMPS:C13:1,2016-06-05T03:35:00Z,26.0630,-83.0730,75.27,1111122 
COMPS,ioos:station:USF.COMPS:C13:1,2016-06-05T04:05:00Z,26.0630,-83.0730,76.88,1111122 
COMPS,ioos:station:USF.COMPS:C13:1,2016-06-05T04:35:00Z,26.0630,-83.0730,77.51,1111122 
COMPS,ioos:station:USF.COMPS:C13:1,2016-06-05T05:05:00Z,26.0630,-83.0730,79.92,1111122 
COMPS,ioos:station:USF.COMPS:C13:1,2016-06-05T05:35:00Z,26.0630,-83.0730,77.63,1111122 
COMPS,ioos:station:USF.COMPS:C13:1,2016-06-05T06:05:00Z,26.0630,-83.0730,76.99,1111122 
COMPS,ioos:station:USF.COMPS:C13:1,2016-06-05T06:35:00Z,26.0630,-83.0730,79.01,1111122 
COMPS,ioos:station:USF.COMPS:C13:1,2016-06-05T07:05:00Z,26.0630,-83.0730,79.02,1111122 
COMPS,ioos:station:USF.COMPS:C13:1,2016-06-05T07:35:00Z,26.0630,-83.0730,80.49,1111122 
COMPS,ioos:station:USF.COMPS:C13:1,2016-06-05T08:05:00Z,26.0630,-83.0730,81.03,1111122 
COMPS,ioos:station:USF.COMPS:C13:1,2016-06-05T08:35:00Z,26.0630,-83.0730,82.32,1111122 
COMPS,ioos:station:USF.COMPS:C13:1,2016-06-05T09:05:00Z,26.0630,-83.0730,82.52,1111122 
COMPS,ioos:station:USF.COMPS:C13:1,2016-06-05T09:35:00Z,26.0630,-83.0730,82.28,1111122 
COMPS,ioos:station:USF.COMPS:C13:1,2016-06-05T10:05:00Z,26.0630,-83.0730,82.84,1111122 
COMPS,ioos:station:USF.COMPS:C13:1,2016-06-05T10:35:00Z,26.0630,-83.0730,82.79,1111122 
COMPS,ioos:station:USF.COMPS:C13:1,2016-06-05T11:05:00Z,26.0630,-83.0730,82.83,1111122 
COMPS,ioos:station:USF.COMPS:C13:1,2016-06-05T11:35:00Z,26.0630,-83.0730,83.21,1111122 
COMPS,ioos:station:USF.COMPS:C13:1,2016-06-05T12:05:00Z,26.0630,-83.0730,83.02,1111122 
COMPS,ioos:station:USF.COMPS:C13:1,2016-06-05T12:35:00Z,26.0630,-83.0730,80.46,1111122 
COMPS,ioos:station:USF.COMPS:C13:1,2016-06-05T13:05:00Z,26.0630,-83.0730,82.98,1111122 
COMPS,ioos:station:USF.COMPS:C13:1,2016-06-05T13:35:00Z,26.0630,-83.0730,80.76,1111122 
COMPS,ioos:station:USF.COMPS:C13:1,2016-06-05T14:05:00Z,26.0630,-83.0730,81.22,1111122 
COMPS,ioos:station:USF.COMPS:C13:1,2016-06-05T14:35:00Z,26.0630,-83.0730,84.52,1111122 
COMPS,ioos:station:USF.COMPS:C13:1,2016-06-05T15:05:00Z,26.0630,-83.0730,79.64,1111122 
COMPS,ioos:station:USF.COMPS:C13:1,2016-06-05T15:35:00Z,26.0630,-83.0730,78.69,1111122 
COMPS,ioos:station:USF.COMPS:C13:1,2016-06-05T16:05:00Z,26.0630,-83.0730,78.22,1111122 
COMPS,ioos:station:USF.COMPS:C13:1,2016-06-05T16:35:00Z,26.0630,-83.0730,79.73,1111122 
COMPS,ioos:station:USF.COMPS:C13:1,2016-06-05T17:05:00Z,26.0630,-83.0730,79.51,1111122 
COMPS,ioos:station:USF.COMPS:C13:1,2016-06-05T17:35:00Z,26.0630,-83.0730,79.58,1111122 
COMPS,ioos:station:USF.COMPS:C13:1,2016-06-05T18:05:00Z,26.0630,-83.0730,80.72,1111122 
COMPS,ioos:station:USF.COMPS:C13:1,2016-06-05T18:35:00Z,26.0630,-83.0730,80.11,1111122 
COMPS,ioos:station:USF.COMPS:C13:1,2016-06-05T19:05:00Z,26.0630,-83.0730,78.6,1111122 
COMPS,ioos:station:USF.COMPS:C13:1,2016-06-05T19:35:00Z,26.0630,-83.0730,79.59,1111122 
COMPS,ioos:station:USF.COMPS:C13:1,2016-06-05T20:05:00Z,26.0630,-83.0730,81.01,1111122 
COMPS,ioos:station:USF.COMPS:C13:1,2016-06-05T20:35:00Z,26.0630,-83.0730,83.39,1111122 
COMPS,ioos:station:USF.COMPS:C13:1,2016-06-05T21:05:00Z,26.0630,-83.0730,84.43,1111122 
COMPS,ioos:station:USF.COMPS:C13:1,2016-06-05T21:35:00Z,26.0630,-83.0730,90.36,1111122 
COMPS,ioos:station:USF.COMPS:C13:1,2016-06-05T22:05:00Z,26.0630,-83.0730,84.56,1111122 
COMPS,ioos:station:USF.COMPS:C13:1,2016-06-05T22:35:00Z,26.0630,-83.0730,82.6,1111122 
COMPS,ioos:station:USF.COMPS:C13:1,2016-06-05T23:05:00Z,26.0630,-83.0730,76.01,1111122 
COMPS,ioos:station:USF.COMPS:C13:1,2016-06-05T23:35:00Z,26.0630,-83.0730,80.1,1111122 
COMPS,ioos:station:USF.COMPS:C13:1,2016-06-06T00:05:00Z,26.0630,-83.0730,81.14,1111122 
COMPS,ioos:station:USF.COMPS:C13:1,2016-06-06T00:35:00Z,26.0630,-83.0730,78.44,1111122 
COMPS,ioos:station:USF.COMPS:C13:1,2016-06-06T01:05:00Z,26.0630,-83.0730,81.78,1111122 
COMPS,ioos:station:USF.COMPS:C13:1,2016-06-06T01:35:00Z,26.0630,-83.0730,77.25,1111122 
COMPS,ioos:station:USF.COMPS:C13:1,2016-06-06T02:05:00Z,26.0630,-83.0730,82.02,1111122 
COMPS,ioos:station:USF.COMPS:C13:1,2016-06-06T02:35:00Z,26.0630,-83.0730,87.93,1111122 
COMPS,ioos:station:USF.COMPS:C13:1,2016-06-06T03:05:00Z,26.0630,-83.0730,88.82,1111122 
COMPS,ioos:station:USF.COMPS:C13:1,2016-06-06T03:35:00Z,26.0630,-83.0730,86.24,1111122 
COMPS,ioos:station:USF.COMPS:C13:1,2016-06-06T04:05:00Z,26.0630,-83.0730,85.49,1111122 
COMPS,ioos:station:USF.COMPS:C13:1,2016-06-06T04:35:00Z,26.0630,-83.0730,88.09,1111122 
COMPS,ioos:station:USF.COMPS:C13:1,2016-06-06T05:05:00Z,26.0630,-83.0730,87.01,1111122 
COMPS,ioos:station:USF.COMPS:C13:1,2016-06-06T05:35:00Z,26.0630,-83.0730,87.76,1111122 
COMPS,ioos:station:USF.COMPS:C13:1,2016-06-06T06:05:00Z,26.0630,-83.0730,81.56,1111122 
COMPS,ioos:station:USF.COMPS:C13:1,2016-06-06T06:35:00Z,26.0630,-83.0730,81.61,1111122 
COMPS,ioos:station:USF.COMPS:C13:1,2016-06-06T07:05:00Z,26.0630,-83.0730,83.51,1111122 
COMPS,ioos:station:USF.COMPS:C13:1,2016-06-06T07:35:00Z,26.0630,-83.0730,83.95,1111122 
COMPS,ioos:station:USF.COMPS:C13:1,2016-06-06T08:05:00Z,26.0630,-83.0730,86.27,1111122 
COMPS,ioos:station:USF.COMPS:C13:1,2016-06-06T08:35:00Z,26.0630,-83.0730,88.66,1111122 
COMPS,ioos:station:USF.COMPS:C13:1,2016-06-06T09:05:00Z,26.0630,-83.0730,91.32,1111122 
COMPS,ioos:station:USF.COMPS:C13:1,2016-06-06T09:35:00Z,26.0630,-83.0730,84.55,1111122 
COMPS,ioos:station:USF.COMPS:C13:1,2016-06-06T10:05:00Z,26.0630,-83.0730,83.85,1111122 
COMPS,ioos:station:USF.COMPS:C13:1,2016-06-06T10:35:00Z,26.0630,-83.0730,85.28,1111122 
COMPS,ioos:station:USF.COMPS:C13:1,2016-06-06T11:05:00Z,26.0630,-83.0730,86.54,1111122 
COMPS,ioos:station:USF.COMPS:C13:1,2016-06-06T11:35:00Z,26.0630,-83.0730,87.62,1111122 
COMPS,ioos:station:USF.COMPS:C13:1,2016-06-06T12:05:00Z,26.0630,-83.0730,86.92,1111122 
COMPS,ioos:station:USF.COMPS:C13:1,2016-06-06T12:35:00Z,26.0630,-83.0730,83.48,1111122 
COMPS,ioos:station:USF.COMPS:C13:1,2016-06-06T13:05:00Z,26.0630,-83.0730,84.32,1111122 
COMPS,ioos:station:USF.COMPS:C13:1,2016-06-06T13:35:00Z,26.0630,-83.0730,87.16,1111122 
COMPS,ioos:station:USF.COMPS:C13:1,2016-06-06T14:05:00Z,26.0630,-83.0730,80.35,1111122 
COMPS,ioos:station:USF.COMPS:C13:1,2016-06-06T14:35:00Z,26.0630,-83.0730,80.1,1111122 
COMPS,ioos:station:USF.COMPS:C13:1,2016-06-06T15:05:00Z,26.0630,-83.0730,86.02,1111122 
COMPS,ioos:station:USF.COMPS:C13:1,2016-06-06T15:35:00Z,26.0630,-83.0730,85.53,1111122 
COMPS,ioos:station:USF.COMPS:C13:1,2016-06-06T16:05:00Z,26.0630,-83.0730,88.18,1111122 
COMPS,ioos:station:USF.COMPS:C13:1,2016-06-06T16:35:00Z,26.0630,-83.0730,87.87,1111122 
COMPS,ioos:station:USF.COMPS:C13:1,2016-06-06T17:05:00Z,26.0630,-83.0730,86.96,1111122 
COMPS,ioos:station:USF.COMPS:C13:1,2016-06-06T17:35:00Z,26.0630,-83.0730,89.28,1111122 
COMPS,ioos:station:USF.COMPS:C13:1,2016-06-06T18:05:00Z,26.0630,-83.0730,92.12,1111122 
COMPS,ioos:station:USF.COMPS:C13:1,2016-06-06T18:35:00Z,26.0630,-83.0730,92.37,1111122 
COMPS,ioos:station:USF.COMPS:C13:1,2016-06-06T19:05:00Z,26.0630,-83.0730,86.46,1111122 
COMPS,ioos:station:USF.COMPS:C13:1,2016-06-06T19:35:00Z,26.0630,-83.0730,88.01,1111122 